• In United Kingdom
  • List of Countries
  • For 7 days
  • Water Temperature
  • Satellite Maps
  • Weather Map
  • Weather Widgets
  • user-avatar
    Login

    Hourly Weather Kaprun

    Today, 21 October, Sunday

    Time Temperature Precipitation Wind Pressure Humidity
    00:00 -1°C° 0 mm 2 mps 601 mmHg 93%
    01:00 -1°C° 0 mm 2 mps 601 mmHg 92%
    02:00 -1°C° 0 mm 2 mps 601 mmHg 91%
    03:00 -1°C° 0 mm 2 mps 600 mmHg 90%
    04:00 -1°C° 0 mm 2 mps 600 mmHg 89%
    05:00 -1°C° 0 mm 2 mps 600 mmHg 89%
    06:00 -1°C° 0 mm 2 mps 600 mmHg 88%
    07:00 0°C° 0 mm 3 mps 601 mmHg 90%
    08:00 0°C° 0.1 mm 3 mps 601 mmHg 85%
    09:00 +1°C° 0.1 mm 3 mps 601 mmHg 79%
    10:00 +1°C° 0.1 mm 3 mps 601 mmHg 74%
    11:00 +2°C° 0.1 mm 3 mps 601 mmHg 71%
    12:00 +2°C° 0.1 mm 3 mps 601 mmHg 67%
    13:00 +2°C° 0.1 mm 3 mps 601 mmHg 64%
    14:00 +2°C° 0 mm 3 mps 601 mmHg 65%
    15:00 +1°C° 0 mm 3 mps 601 mmHg 66%
    16:00 +2°C° 0 mm 2 mps 600 mmHg 68%
    17:00 -1°C° 0 mm 2 mps 600 mmHg 76%
    18:00 -3°C° 0 mm 2 mps 599 mmHg 84%
    19:00 -4°C° 0 mm 2 mps 599 mmHg 92%
    20:00 -3°C° 0 mm 1 mps 599 mmHg 91%
    21:00 -3°C° 0 mm 1 mps 599 mmHg 90%
    22:00 -3°C° 0 mm 1 mps 599 mmHg 89%
    23:00 -3°C° 0 mm 1 mps 599 mmHg 85%

    Tomorrow, 22 October, Monday

    Time Temperature Precipitation Wind Pressure Humidity
    00:00 -3°C° 0 mm 1 mps 599 mmHg 82%
    01:00 -3°C° 0 mm 1 mps 599 mmHg 78%
    02:00 -3°C° 0 mm 1 mps 599 mmHg 76%
    03:00 -3°C° 0 mm 1 mps 599 mmHg 74%
    04:00 -3°C° 0 mm 1 mps 598 mmHg 71%
    05:00 -3°C° 0 mm 1 mps 599 mmHg 69%
    06:00 -3°C° 0 mm 1 mps 599 mmHg 67%
    07:00 -2°C° 0 mm 1 mps 599 mmHg 65%
    08:00 0°C° 0 mm 1 mps 600 mmHg 58%
    09:00 +3°C° 0 mm 1 mps 601 mmHg 51%
    10:00 +6°C° 0 mm 1 mps 602 mmHg 43%
    11:00 +5°C° 0 mm 2 mps 602 mmHg 44%
    12:00 +6°C° 0 mm 2 mps 602 mmHg 45%
    13:00 +7°C° 0 mm 2 mps 602 mmHg 45%
    14:00 +6°C° 0 mm 2 mps 602 mmHg 52%
    15:00 +5°C° 0 mm 2 mps 601 mmHg 58%
    16:00 +4°C° 0 mm 2 mps 601 mmHg 65%
    17:00 +2°C° 0 mm 2 mps 601 mmHg 74%
    18:00 -1°C° 0 mm 2 mps 600 mmHg 83%
    19:00 -3°C° 0 mm 2 mps 600 mmHg 92%
    20:00 -3°C° 0 mm 2 mps 600 mmHg 93%
    21:00 -3°C° 0 mm 2 mps 601 mmHg 93%
    22:00 -3°C° 0 mm 2 mps 601 mmHg 94%
    23:00 -3°C° 0 mm 2 mps 601 mmHg 93%

    Day after tomorrow, 23 October, Tuesday

    Time Temperature Precipitation Wind Pressure Humidity
    00:00 -3°C° 0 mm 2 mps 601 mmHg 92%
    01:00 -4°C° 0 mm 2 mps 601 mmHg 92%
    02:00 -4°C° 0 mm 2 mps 601 mmHg 88%
    03:00 -4°C° 0 mm 2 mps 601 mmHg 85%
    04:00 -4°C° 0 mm 2 mps 601 mmHg 82%
    05:00 -4°C° 0 mm 2 mps 601 mmHg 83%
    06:00 -4°C° 0 mm 2 mps 601 mmHg 84%
    07:00 -4°C° 0 mm 2 mps 601 mmHg 86%
    08:00 -2°C° 0 mm 2 mps 601 mmHg 77%
    09:00 +1°C° 0 mm 2 mps 602 mmHg 69%
    10:00 +3°C° 0 mm 2 mps 603 mmHg 61%
    11:00 +4°C° 0 mm 2 mps 603 mmHg 56%
    12:00 +5°C° 0 mm 2 mps 603 mmHg 52%
    13:00 +6°C° 0 mm 2 mps 603 mmHg 48%
    14:00 +6°C° 0 mm 2 mps 602 mmHg 52%
    15:00 +5°C° 0 mm 2 mps 601 mmHg 57%
    16:00 +4°C° 0 mm 2 mps 601 mmHg 61%
    17:00 +3°C° 0 mm 2 mps 600 mmHg 66%
    18:00 +1°C° 0 mm 2 mps 600 mmHg 72%
    19:00 -1°C° 0 mm 2 mps 599 mmHg 78%
    20:00 -1°C° 0 mm 2 mps 599 mmHg 76%
    21:00 -1°C° 0 mm 2 mps 599 mmHg 75%
    22:00 0°C° 0 mm 3 mps 599 mmHg 74%
    23:00 -1°C° 0.1 mm 3 mps 599 mmHg 73%

    24 October, Wednesday

    Time Temperature Precipitation Wind Pressure Humidity
    00:00 -1°C° 0.1 mm 3 mps 599 mmHg 73%
    01:00 -1°C° 0.1 mm 3 mps 598 mmHg 73%
    02:00 -1°C° 0.1 mm 3 mps 598 mmHg 74%
    03:00 -1°C° 0.1 mm 3 mps 598 mmHg 75%
    04:00 -1°C° 0.1 mm 3 mps 598 mmHg 76%
    05:00 -1°C° 0.6 mm 3 mps 598 mmHg 80%
    06:00 -1°C° 0.6 mm 3 mps 597 mmHg 83%
    07:00 -1°C° 0.6 mm 3 mps 597 mmHg 87%
    08:00 -1°C° 1.1 mm 4 mps 598 mmHg 86%
    09:00 0°C° 1.1 mm 4 mps 598 mmHg 86%
    10:00 0°C° 1.1 mm 4 mps 598 mmHg 85%
    11:00 +1°C° 1.2 mm 4 mps 598 mmHg 84%
    12:00 +1°C° 1.2 mm 4 mps 598 mmHg 83%
    13:00 +3°C° 1.2 mm 4 mps 598 mmHg 82%
    14:00 +1°C° 1.4 mm 4 mps 598 mmHg 84%
    15:00 +1°C° 1.4 mm 4 mps 598 mmHg 87%
    16:00 +2°C° 1.4 mm 3 mps 597 mmHg 89%
    17:00 +1°C° 1.2 mm 3 mps 598 mmHg 90%
    18:00 +1°C° 1.2 mm 3 mps 598 mmHg 92%
    19:00 +1°C° 1.2 mm 3 mps 598 mmHg 93%
    20:00 +1°C° 0.8 mm 3 mps 598 mmHg 94%
    21:00 +1°C° 0.8 mm 3 mps 599 mmHg 94%
    22:00 +1°C° 0.8 mm 3 mps 599 mmHg 94%
    23:00 0°C° 0.4 mm 3 mps 599 mmHg 94%

    25 October, Thursday

    Time Temperature Precipitation Wind Pressure Humidity
    00:00 0°C° 0.4 mm 3 mps 599 mmHg 95%
    01:00 0°C° 0.4 mm 3 mps 599 mmHg 95%
    02:00 0°C° 0.1 mm 3 mps 599 mmHg 95%
    03:00 -1°C° 0.1 mm 2 mps 599 mmHg 96%
    04:00 -1°C° 0.1 mm 2 mps 598 mmHg 96%
    05:00 -1°C° 0 mm 2 mps 598 mmHg 95%
    06:00 -1°C° 0 mm 2 mps 598 mmHg 95%
    07:00 -1°C° 0 mm 2 mps 598 mmHg 95%
    08:00 +1°C° 0 mm 2 mps 599 mmHg 87%
    09:00 +3°C° 0 mm 2 mps 599 mmHg 79%
    10:00 +5°C° 0 mm 2 mps 600 mmHg 71%
    11:00 +6°C° 0 mm 2 mps 600 mmHg 65%
    12:00 +7°C° 0 mm 2 mps 600 mmHg 59%
    13:00 +8°C° 0 mm 2 mps 600 mmHg 52%
    14:00 +8°C° 0 mm 1 mps 600 mmHg 58%
    15:00 +7°C° 0 mm 1 mps 599 mmHg 64%
    16:00 +7°C° 0 mm 1 mps 598 mmHg 70%
    17:00 +5°C° 0 mm 1 mps 598 mmHg 75%
    18:00 +3°C° 0 mm 1 mps 597 mmHg 80%
    19:00 +1°C° 0 mm 1 mps 596 mmHg 85%
    20:00 +1°C° 0 mm 1 mps 596 mmHg 83%
    21:00 0°C° 0 mm 1 mps 596 mmHg 80%
    22:00 0°C° 0 mm 1 mps 596 mmHg 78%
    23:00 0°C° 0 mm 1 mps 595 mmHg 73%

    26 October, Friday

    Time Temperature Precipitation Wind Pressure Humidity
    00:00 0°C° 0 mm 1 mps 595 mmHg 69%
    01:00 0°C° 0 mm 1 mps 595 mmHg 64%
    02:00 0°C° 0 mm 1 mps 594 mmHg 62%
    03:00 0°C° 0 mm 1 mps 594 mmHg 59%
    04:00 0°C° 0 mm 1 mps 594 mmHg 57%
    05:00 0°C° 0 mm 1 mps 593 mmHg 58%
    06:00 -1°C° 0 mm 1 mps 593 mmHg 59%
    07:00 -3°C° 0 mm 2 mps 593 mmHg 60%
    08:00 +1°C° 0 mm 2 mps 594 mmHg 58%
    09:00 +4°C° 0 mm 2 mps 595 mmHg 56%
    10:00 +6°C° 0 mm 2 mps 596 mmHg 55%
    11:00 +7°C° 0 mm 2 mps 596 mmHg 54%
    12:00 +8°C° 0 mm 2 mps 595 mmHg 53%
    13:00 +9°C° 0 mm 2 mps 595 mmHg 52%
    14:00 +8°C° 0 mm 2 mps 595 mmHg 60%
    15:00 +7°C° 0 mm 2 mps 594 mmHg 67%
    16:00 +6°C° 0 mm 2 mps 593 mmHg 75%
    17:00 +4°C° 0 mm 2 mps 593 mmHg 80%
    18:00 +3°C° 0 mm 2 mps 592 mmHg 85%
    19:00 +2°C° 0 mm 2 mps 592 mmHg 91%
    20:00 +2°C° 0 mm 2 mps 592 mmHg 91%
    21:00 +2°C° 0 mm 2 mps 592 mmHg 92%
    22:00 +2°C° 0 mm 2 mps 592 mmHg 92%
    23:00 +2°C° 0.1 mm 2 mps 591 mmHg 92%
    Show more